GW1618 Weather Reports


Display with metric or nautical units.
time (UTC)temp
F
wind
direction
speed
MPH
gust
MPH
rain 1hr
in
rain 24hr
in
rain mn
in
humidity
%
barometer
mb
20260509055153 54 69 1.0 2.0 0.00 0.00 0.00 77 1022.3
20260509054654 54 183 1.0 3.0 0.00 0.00 0.00 76 1022.3
20260509054138 54 254 1.0 4.0 0.00 0.00 0.00 76 1022.3
20260509053641 54 304 1.0 4.0 0.00 0.00 0.00 76 1022.3
20260509053135 54 280 1.0 3.0 0.00 0.00 0.00 76 1022.3
20260509052634 54 280 2.0 3.0 0.00 0.00 0.00 76 1022.3
20260509052133 54 308 2.0 5.0 0.00 0.00 0.00 76 1022.3
20260509051635 55 311 3.0 5.0 0.00 0.00 0.00 76 1022.3
20260509051135 55 317 3.0 5.0 0.00 0.00 0.00 76 1022.3
20260509050637 55 334 4.0 6.0 0.00 0.00 0.00 76 1022.3
20260509050420 55 334 4.0 6.0 0.00 0.00 0.00 75 1022.2
20260509045631 55 323 4.0 7.0 0.00 0.00 0.00 75 1022.2
20260509045133 55 298 4.0 7.0 0.00 0.00 0.00 75 1022.2
20260509044631 55 325 3.0 6.0 0.00 0.00 0.00 74 1021.9
20260509044131 55 304 3.0 7.0 0.00 0.00 0.00 74 1021.9
20260509043631 55 340 3.0 7.0 0.00 0.00 0.00 73 1021.9
20260509043129 56 327 3.0 6.0 0.00 0.00 0.00 73 1021.8
20260509042624 56 325 3.0 6.0 0.00 0.00 0.00 73 1021.8
20260509042117 56 322 4.0 6.0 0.00 0.00 0.00 73 1021.8
20260509041616 56 303 5.0 11.0 0.00 0.00 0.00 72 1021.8
20260509041115 56 296 6.0 11.0 0.00 0.00 0.00 72 1021.8
20260509040613 56 316 6.0 11.0 0.00 0.00 0.00 72 1021.8
20260509040114 56 332 6.0 11.0 0.00 0.00 0.00 72 1021.7
20260509035611 56 313 7.0 13.0 0.00 0.00 0.00 72 1021.7
20260509035112 56 262 7.0 13.0 0.00 0.00 0.00 71 1021.7
20260509034638 56 305 7.0 11.0 0.00 0.00 0.00 71 1021.7
20260509033903 56 304 7.0 13.0 0.00 0.00 0.00 69 1021.7
20260509033110 56 313 8.0 14.0 0.00 0.00 0.00 69 1021.6
20260509032856 57 309 7.0 14.0 0.00 0.00 0.00 68 1021.6
20260509032109 57 325 6.0 10.0 0.00 0.00 0.00 68 1021.6
20260509031605 57 291 6.0 13.0 0.00 0.00 0.00 68 1021.5
20260509031105 57 300 5.0 13.0 0.00 0.00 0.00 68 1021.5
20260509030605 57 320 6.0 13.0 0.00 0.00 0.00 68 1021.5
20260509030114 57 259 7.0 13.0 0.00 0.00 0.00 67 1021.4
20260509025610 57 275 6.0 13.0 0.00 0.00 0.00 67 1021.4
20260509025357 57 311 7.0 13.0 0.00 0.00 0.00 66 1021.3
20260509024607 57 297 8.0 14.0 0.00 0.00 0.00 66 1021.3
20260509024105 57 316 9.0 14.0 0.00 0.00 0.00 66 1021.3
20260509023559 58 309 9.0 15.0 0.00 0.00 0.00 64 1021.3
20260509023130 58 289 9.0 15.0 0.00 0.00 0.00 64 1021.2
20260509022101 59 296 7.0 13.0 0.00 0.00 0.00 63 1021.2
20260509021604 59 323 8.0 13.0 0.00 0.00 0.00 63 1021.2
20260509021412 59 294 9.0 14.0 0.00 0.00 0.00 62 1021.2
20260509020347 59 323 6.0 11.0 0.00 0.00 0.00 60 1021.2
20260509015556 59 277 7.0 11.0 0.00 0.00 0.00 61 1021.2
20260509015054 59 302 9.0 14.0 0.00 0.00 0.00 61 1021.2
20260509014555 59 262 9.0 15.0 0.00 0.00 0.00 61 1021.2
20260509014056 59 308 8.0 15.0 0.00 0.00 0.00 60 1021.2
20260509013553 59 275 8.0 15.0 0.00 0.00 0.00 60 1021.2
20260509013123 59 328 9.0 15.0 0.00 0.00 0.00 60 1021.2
20260509012052 59 314 8.0 15.0 0.00 0.00 0.00 61 1021.3
20260509011552 59 313 9.0 16.0 0.00 0.00 0.00 61 1021.3
20260509011051 59 306 10.0 16.0 0.00 0.00 0.00 61 1021.3
20260509010545 59 275 11.0 17.0 0.00 0.00 0.00 61 1021.2
20260509010040 59 297 11.0 17.0 0.00 0.00 0.00 58 1021.2
20260509005540 60 270 9.0 16.0 0.00 0.00 0.00 58 1021.2
20260509005324 60 317 9.0 15.0 0.00 0.00 0.00 58 1021.2
20260509004536 60 321 9.0 14.0 0.00 0.00 0.00 57 1021.2
20260509004035 60 297 9.0 15.0 0.00 0.00 0.00 58 1021.2
20260509003537 60 307 8.0 15.0 0.00 0.00 0.00 57 1021.2
20260509003036 60 323 8.0 15.0 0.00 0.00 0.00 57 1021.2
20260509002818 60 315 8.0 14.0 0.00 0.00 0.00 56 1021.2
20260509002032 60 307 9.0 14.0 0.00 0.00 0.00 56 1021.2
20260509001536 60 344 8.0 14.0 0.00 0.00 0.00 56 1021.2
20260509001033 60 281 10.0 19.0 0.00 0.00 0.00 55 1021.2
20260509000534 60 285 11.0 19.0 0.00 0.00 0.00 55 1021.2
20260509000032 61 258 9.0 17.0 0.00 0.00 0.00 54 1021.2
20260508235532 61 282 9.0 14.0 0.00 0.00 0.00 53 1021.2
20260508235032 61 260 8.0 14.0 0.00 0.00 0.00 53 1021.1
20260508234532 62 265 6.0 14.0 0.00 0.00 0.00 54 1021.1
20260508234032 62 323 4.0 14.0 0.00 0.00 0.00 52 1021.1
20260508233530 61 243 3.0 7.0 0.00 0.00 0.00 53 1021.1
20260508233021 61 220 4.0 7.0 0.00 0.00 0.00 53 1021.1
20260508232803 61 250 5.0 10.0 0.00 0.00 0.00 54 1021.1
20260508232016 61 198 5.0 12.0 0.00 0.00 0.00 53 1021.1
20260508231516 61 165 5.0 12.0 0.00 0.00 0.00 54 1021.1
20260508231013 60 248 6.0 15.0 0.00 0.00 0.00 54 1021.1
20260508230513 60 175 7.0 15.0 0.00 0.00 0.00 54 1021.2
20260508230014 60 252 7.0 11.0 0.00 0.00 0.00 53 1021.2
20260508225513 60 253 7.0 15.0 0.00 0.00 0.00 53 1021.2
20260508225012 60 240 8.0 15.0 0.00 0.00 0.00 53 1021.1
20260508224514 60 221 8.0 15.0 0.00 0.00 0.00 53 1021.1
20260508224011 60 251 8.0 15.0 0.00 0.00 0.00 52 1021.1
20260508223510 60 198 6.0 15.0 0.00 0.00 0.00 52 1021.1
20260508223009 60 264 6.0 14.0 0.00 0.00 0.00 53 1021.1
20260508222510 60 267 5.0 13.0 0.00 0.00 0.00 52 1021.1
20260508222008 60 273 6.0 11.0 0.00 0.00 0.00 52 1021.2
20260508221750 60 209 6.0 13.0 0.00 0.00 0.00 53 1021.2
20260508221003 60 252 6.0 13.0 0.00 0.00 0.00 52 1021.2
20260508220502 60 208 7.0 16.0 0.00 0.00 0.00 53 1021.2
20260508220001 60 238 8.0 16.0 0.00 0.00 0.00 54 1021.2
20260508215503 60 217 6.0 14.0 0.00 0.00 0.00 52 1021.2
20260508215001 60 232 6.0 12.0 0.00 0.00 0.00 53 1021.2
20260508214502 60 205 5.0 12.0 0.00 0.00 0.00 52 1021.2
20260508214002 60 252 6.0 16.0 0.00 0.00 0.00 53 1021.2
20260508213506 60 178 6.0 16.0 0.00 0.00 0.00 52 1021.2
20260508213005 60 209 7.0 12.0 0.00 0.00 0.00 53 1021.2
20260508212503 59 304 7.0 12.0 0.00 0.00 0.00 51 1021.2
20260508212245 59 224 8.0 15.0 0.00 0.00 0.00 51 1021.0
20260508211501 59 246 9.0 15.0 0.00 0.00 0.00 51 1021.0
20260508211003 59 212 9.0 16.0 0.00 0.00 0.00 53 1021.0
20260508210743 59 188 8.0 16.0 0.00 0.00 0.00 51 1020.8
20260508210001 59 286 7.0 13.0 0.00 0.00 0.00 52 1020.8
20260508205529 59 231 8.0 14.0 0.00 0.00 0.00 52 1020.8
20260508204501 59 226 6.0 14.0 0.00 0.00 0.00 52 1020.8
20260508204002 59 240 6.0 13.0 0.00 0.00 0.00 52 1020.8
20260508203502 59 238 5.0 13.0 0.00 0.00 0.00 51 1020.7
20260508203250 58 232 5.0 12.0 0.00 0.00 0.00 54 1020.7
20260508202501 58 252 7.0 12.0 0.00 0.00 0.00 53 1020.7
20260508202004 58 206 7.0 14.0 0.00 0.00 0.00 53 1020.7
20260508201504 58 281 5.0 14.0 0.00 0.00 0.00 54 1020.7
20260508201005 58 244 4.0 11.0 0.00 0.00 0.00 55 1020.7
20260508200500 58 204 5.0 13.0 0.00 0.00 0.00 55 1020.7
20260508195957 57 256 7.0 13.0 0.00 0.00 0.00 55 1020.7
20260508195458 57 265 6.0 14.0 0.00 0.00 0.00 54 1020.7
20260508194958 57 234 6.0 14.0 0.00 0.00 0.00 54 1020.7
20260508194458 57 257 6.0 16.0 0.00 0.00 0.00 55 1020.7
20260508193959 57 183 7.0 16.0 0.00 0.00 0.00 57 1020.7
20260508193456 57 248 6.0 13.0 0.00 0.00 0.00 57 1020.7
20260508192958 56 214 7.0 14.0 0.00 0.00 0.00 58 1020.7
20260508192506 56 244 8.0 14.0 0.00 0.00 0.00 58 1020.7
20260508191947 56 205 7.0 14.0 0.00 0.00 0.00 59 1020.7
20260508191433 56 233 7.0 14.0 0.00 0.00 0.00 59 1020.7
20260508190933 56 215 8.0 15.0 0.00 0.00 0.00 59 1020.7
20260508190433 56 241 7.0 15.0 0.00 0.00 0.00 60 1020.7
20260508185931 56 271 6.0 12.0 0.00 0.00 0.00 60 1020.7
20260508185428 56 193 6.0 11.0 0.00 0.00 0.00 60 1020.7
20260508184929 55 215 5.0 15.0 0.00 0.00 0.00 62 1020.7
20260508184429 55 206 6.0 15.0 0.00 0.00 0.00 61 1020.7
20260508183932 55 259 6.0 13.0 0.00 0.00 0.00 61 1020.7
20260508183432 55 199 6.0 13.0 0.00 0.00 0.00 62 1020.7
20260508182934 55 271 6.0 14.0 0.00 0.00 0.00 62 1020.7
20260508182424 54 267 7.0 15.0 0.00 0.00 0.00 62 1020.7
20260508181909 54 214 8.0 15.0 0.00 0.00 0.00 63 1020.6
20260508181409 54 256 7.0 16.0 0.00 0.00 0.00 63 1020.6
20260508181206 54 244 5.0 16.0 0.00 0.00 0.00 63 1020.6
20260508180410 54 231 5.0 14.0 0.00 0.00 0.00 63 1020.6
20260508175911 53 256 6.0 14.0 0.00 0.00 0.00 63 1020.6
20260508175410 53 243 5.0 11.0 0.00 0.00 0.00 63 1020.6
20260508174908 53 223 4.0 10.0 0.00 0.00 0.00 64 1020.5
20260508174441 53 250 5.0 13.0 0.00 0.00 0.00 65 1020.5
20260508173428 53 267 6.0 15.0 0.00 0.00 0.00 64 1020.2
20260508172407 53 209 6.0 15.0 0.00 0.00 0.00 65 1020.2
20260508171904 53 245 6.0 15.0 0.00 0.00 0.00 64 1020.0
20260508171404 53 242 6.0 13.0 0.00 0.00 0.00 65 1020.0
20260508170933 53 197 6.0 13.0 0.00 0.00 0.00 65 1020.0
20260508165907 53 207 7.0 13.0 0.00 0.00 0.00 64 1020.0
20260508165403 53 222 7.0 13.0 0.00 0.00 0.00 63 1020.0
20260508164902 53 265 6.0 13.0 0.00 0.00 0.00 64 1019.8
20260508164401 53 254 7.0 15.0 0.00 0.00 0.00 63 1019.8
20260508163902 53 223 8.0 15.0 0.00 0.00 0.00 63 1019.8
20260508163402 53 250 9.0 15.0 0.00 0.00 0.00 63 1019.7
20260508162901 53 231 9.0 17.0 0.00 0.00 0.00 63 1019.7
20260508162401 53 265 8.0 17.0 0.00 0.00 0.00 62 1019.7
20260508161901 53 224 6.0 13.0 0.00 0.00 0.00 64 1019.3
20260508161403 53 253 6.0 13.0 0.00 0.00 0.00 65 1019.3
20260508160910 53 258 6.0 14.0 0.00 0.00 0.00 65 1019.3
20260508160648 53 242 6.0 14.0 0.00 0.00 0.00 65 1019.4
20260508155843 53 215 6.0 12.0 0.00 0.00 0.00 66 1019.4
20260508155334 52 267 6.0 12.0 0.00 0.00 0.00 66 1019.4
20260508154833 52 260 6.0 12.0 0.00 0.00 0.00 66 1019.1
20260508154335 52 253 5.0 12.0 0.00 0.00 0.00 67 1019.1
20260508153837 52 240 5.0 9.0 0.00 0.00 0.00 67 1019.1
20260508153335 52 231 5.0 12.0 0.00 0.00 0.00 67 1019.2
20260508152834 52 194 5.0 12.0 0.00 0.00 0.00 67 1019.2
20260508152331 52 259 4.0 10.0 0.00 0.00 0.00 67 1019.2
20260508151833 52 199 4.0 10.0 0.00 0.00 0.00 67 1019.1
20260508151337 52 231 5.0 11.0 0.00 0.00 0.00 64 1019.1
20260508150836 52 238 5.0 11.0 0.00 0.00 0.00 64 1019.1
20260508150618 52 263 5.0 13.0 0.00 0.00 0.00 64 1019.1
20260508145830 52 188 4.0 13.0 0.00 0.00 0.00 66 1019.1
20260508145328 52 214 3.0 11.0 0.00 0.00 0.00 68 1019.1
20260508144825 51 150 4.0 6.0 0.00 0.00 0.00 70 1019.2
20260508144317 51 186 5.0 9.0 0.00 0.00 0.00 71 1019.2
20260508143810 51 237 5.0 9.0 0.00 0.00 0.00 71 1019.2
20260508143310 51 185 4.0 9.0 0.00 0.00 0.00 71 1019.1
20260508142808 51 253 3.0 6.0 0.00 0.00 0.00 74 1019.1
20260508142307 50 202 3.0 6.0 0.00 0.00 0.00 76 1019.1
20260508142045 50 220 3.0 5.0 0.00 0.00 0.00 78 1018.9
20260508141308 49 196 2.0 4.0 0.00 0.00 0.00 80 1018.9
20260508140809 49 232 2.0 4.0 0.00 0.00 0.00 80 1018.9
20260508140304 49 219 2.0 4.0 0.00 0.00 0.00 80 1018.6
20260508135805 48 267 3.0 5.0 0.00 0.00 0.00 80 1018.6
20260508135326 48 239 3.0 5.0 0.00 0.00 0.00 80 1018.6
20260508134301 48 249 3.0 5.0 0.00 0.00 0.00 81 1018.2
20260508134040 48 256 2.0 5.0 0.00 0.00 0.00 81 1018.2
20260508133303 48 240 2.0 4.0 0.00 0.00 0.00 80 1018.1
20260508132801 48 196 3.0 5.0 0.00 0.00 0.00 80 1018.1
20260508132306 48 232 3.0 5.0 0.00 0.00 0.00 81 1018.1
20260508131801 48 239 2.0 4.0 0.00 0.00 0.00 81 1018.0
20260508131259 49 255 2.0 4.0 0.00 0.00 0.00 81 1018.0
20260508130758 49 189 2.0 4.0 0.00 0.00 0.00 81 1018.0
20260508130256 48 186 2.0 3.0 0.00 0.00 0.00 81 1017.6
20260508125758 49 145 2.0 3.0 0.00 0.00 0.00 81 1017.6
20260508125253 49 157 2.0 4.0 0.00 0.00 0.00 81 1017.6
20260508124754 48 144 2.0 4.0 0.00 0.00 0.00 82 1017.6
20260508124516 48 148 2.0 3.0 0.00 0.00 0.00 82 1017.6
20260508123746 48 176 2.0 3.0 0.00 0.00 0.00 83 1017.6
20260508123231 48 141 1.0 2.0 0.00 0.00 0.00 83 1017.6
20260508122805 48 165 1.0 2.0 0.00 0.00 0.00 83 1017.6
20260508122025 48 196 1.0 2.0 0.00 0.00 0.00 83 1017.5
20260508121229 48 206 1.0 2.0 0.00 0.00 0.00 83 1017.5
20260508120730 48 250 1.0 2.0 0.00 0.00 0.00 83 1017.5
20260508120229 48 250 1.0 2.0 0.00 0.00 0.00 83 1017.4
20260508115732 48 247 1.0 3.0 0.00 0.00 0.00 82 1017.4
20260508115230 48 220 2.0 3.0 0.00 0.00 0.00 82 1017.4
20260508114729 48 206 1.0 3.0 0.00 0.00 0.00 82 1017.4
20260508114518 48 190 2.0 4.0 0.00 0.00 0.00 82 1017.4
20260508113717 48 264 2.0 4.0 0.00 0.00 0.00 82 1017.4
20260508113202 48 229 2.0 4.0 0.00 0.00 0.00 81 1017.1
20260508112702 49 240 3.0 5.0 0.00 0.00 0.00 81 1017.1
20260508112203 49 225 3.0 5.0 0.00 0.00 0.00 81 1017.1
20260508111705 49 242 3.0 5.0 0.00 0.00 0.00 81 1017.0
20260508111448 49 247 3.0 5.0 0.00 0.00 0.00 81 1017.0
20260508110704 49 253 3.0 5.0 0.00 0.00 0.00 80 1017.0
20260508110200 49 260 2.0 4.0 0.00 0.00 0.00 81 1016.9
20260508105941 49 263 2.0 4.0 0.00 0.00 0.00 81 1016.9
20260508105151 49 260 3.0 4.0 0.00 0.00 0.00 80 1016.9
20260508104652 49 253 3.0 5.0 0.00 0.00 0.00 80 1016.6
20260508104436 49 250 3.0 5.0 0.00 0.00 0.00 80 1016.6
20260508103644 49 260 3.0 5.0 0.00 0.00 0.00 80 1016.6
20260508103143 49 243 3.0 5.0 0.00 0.00 0.00 80 1016.5
20260508102634 49 231 3.0 5.0 0.00 0.00 0.00 80 1016.5
20260508102132 49 222 3.0 5.0 0.00 0.00 0.00 80 1016.5
20260508101631 49 247 2.0 5.0 0.00 0.00 0.00 80 1016.5
20260508101134 49 257 2.0 4.0 0.00 0.00 0.00 80 1016.5
20260508100629 49 204 2.0 4.0 0.00 0.00 0.00 80 1016.5
20260508100121 50 222 3.0 5.0 0.00 0.00 0.00 80 1016.5
20260508095617 50 245 4.0 5.0 0.00 0.00 0.00 80 1016.5
20260508095117 50 245 4.0 5.0 0.00 0.00 0.00 79 1016.5
20260508094612 50 266 3.0 5.0 0.00 0.00 0.00 79 1016.5
20260508094105 50 264 3.0 5.0 0.00 0.00 0.00 79 1016.5
20260508093602 50 271 3.0 6.0 0.00 0.00 0.00 79 1016.5
20260508093102 50 258 3.0 6.0 0.00 0.00 0.00 79 1016.5
20260508092603 50 270 3.0 5.0 0.00 0.00 0.00 79 1016.5
20260508092353 50 244 2.0 4.0 0.00 0.00 0.00 80 1016.4
20260508091604 50 261 1.0 3.0 0.00 0.00 0.00 80 1016.4
20260508091346 50 217 0.0 2.0 0.00 0.00 0.00 80 1016.4
20260508090606 50 292 1.0 2.0 0.00 0.00 0.00 80 1016.4
20260508090059 51 292 1.0 2.0 0.00 0.00 0.00 80 1016.4
20260508085542 51 292 1.0 2.0 0.00 0.00 0.00 80 1016.4
20260508085315 51 344 1.0 2.0 0.00 0.00 0.00 79 1016.4
20260508084532 51 344 1.0 2.0 0.00 0.00 0.00 78 1016.4
20260508084025 51 324 0.0 2.0 0.00 0.00 0.00 78 1016.4
20260508083522 51 324 1.0 2.0 0.00 0.00 0.00 78 1016.3
20260508083023 51 324 2.0 2.0 0.00 0.00 0.00 77 1016.3
20260508082522 51 304 2.0 2.0 0.00 0.00 0.00 77 1016.3
20260508082021 51 310 1.0 2.0 0.00 0.00 0.00 77 1016.3
20260508081521 51 328 0.0 2.0 0.00 0.00 0.00 77 1016.3
20260508081017 51 345 0.0 1.0 0.00 0.00 0.00 76 1016.3
20260508080507 51 345 0.0 1.0 0.00 0.00 0.00 76 1016.1
20260508080004 51 345 1.0 2.0 0.00 0.00 0.00 76 1016.1
20260508075504 51 345 1.0 2.0 0.00 0.00 0.00 76 1016.1
20260508075002 51 345 2.0 4.0 0.00 0.00 0.00 76 1016.1
20260508074456 51 359 3.0 4.0 0.00 0.00 0.00 75 1016.1
20260508073953 51 339 3.0 4.0 0.00 0.00 0.00 76 1016.1
20260508073444 52 347 3.0 5.0 0.00 0.00 0.00 76 1016.1
20260508072946 52 4 3.0 5.0 0.00 0.00 0.00 76 1016.1
20260508072729 52 348 3.0 5.0 0.00 0.00 0.00 76 1016.1
20260508071942 52 352 3.0 5.0 0.00 0.00 0.00 75 1016.1
20260508071440 52 355 3.0 4.0 0.00 0.00 0.00 75 1016.1
20260508071231 52 340 3.0 4.0 0.00 0.00 0.00 75 1016.1
20260508070441 53 325 2.0 4.0 0.00 0.00 0.00 74 1016.2
20260508065941 53 339 3.0 5.0 0.00 0.00 0.00 74 1016.2
20260508065441 53 346 3.0 5.0 0.00 0.00 0.00 73 1016.2
20260508064935 53 348 2.0 4.0 0.00 0.00 0.00 73 1016.2
20260508064435 53 359 2.0 4.0 0.00 0.00 0.00 73 1016.2
20260508063935 53 350 3.0 4.0 0.00 0.00 0.00 72 1016.2
20260508063446 53 346 2.0 4.0 0.00 0.00 0.00 72 1016.1
20260508062429 54 325 3.0 4.0 0.00 0.00 0.00 72 1016.1
20260508062219 54 313 3.0 5.0 0.00 0.00 0.00 71 1016.2
20260508061423 54 323 4.0 6.0 0.00 0.00 0.00 71 1016.2
20260508060926 54 354 5.0 7.0 0.00 0.00 0.00 71 1016.2
20260508060422 54 340 4.0 7.0 0.00 0.00 0.00 70 1016.2
20260508060219 55 337 3.0 5.0 0.00 0.00 0.00 70 1016.2